This is the latest recevied weather packets stored in our database for station/object N5TDX. If no packets are shown the sender has not sent any weather packets the latest 10 day(s).
| Time | Temp. | Humidity | Pressure | Rain* | Wind** | Luminosity | Snow |
|---|---|---|---|---|---|---|---|
| 1787917489 | 26.67° C | 64% | 1014.1 hPa | 0 mm | - | - | - |
| 1787917185 | 26.67° C | 65% | 1014.2 hPa | 0 mm | - | - | - |
| 1787916884 | 26.11° C | 65% | 1014.1 hPa | 0 mm | - | - | - |
| 1787916583 | 26.11° C | 65% | 1014.1 hPa | 0 mm | - | - | - |
| 1787916278 | 26.11° C | 65% | 1014.2 hPa | 0 mm | - | - | - |
| 1787915973 | 26.11° C | 65% | 1014.1 hPa | 0 mm | - | - | - |
| 1787915668 | 25.56° C | 67% | 1014 hPa | 0 mm | - | - | - |
| 1787915363 | 25.56° C | 67% | 1014 hPa | 0 mm | - | - | - |
| 1787915059 | 25.56° C | 67% | 1013.8 hPa | 0 mm | - | - | - |
| 1787914757 | 26.11° C | 66% | 1013.7 hPa | 0 mm | - | - | - |
| 1787914452 | 26.11° C | 66% | 1013.7 hPa | 0 mm | - | - | - |
| 1787914147 | 26.11° C | 66% | 1013.6 hPa | 0 mm | - | - | - |
| 1787913846 | 26.11° C | 65% | 1013.7 hPa | 0 mm | - | - | - |
| 1787913541 | 26.67° C | 64% | 1013.6 hPa | 0 mm | - | - | - |
| 1787913240 | 26.67° C | 64% | 1013.4 hPa | 0 mm | - | - | - |
| 1787912940 | 26.67° C | 63% | 1013.5 hPa | 0 mm | - | - | - |
| 1787912639 | 26.67° C | 62% | 1013.7 hPa | 0 mm | - | - | - |
| 1787912339 | 27.22° C | 62% | 1013.4 hPa | 0 mm | - | - | - |
| 1787912038 | 27.22° C | 61% | 1013.5 hPa | 0 mm | - | - | - |
| 1787911733 | 27.22° C | 61% | 1013.6 hPa | 0 mm | - | - | - |
| 1787911443 | 27.22° C | 61% | 1013.5 hPa | 0 mm | - | - | - |
| 1787911130 | 26.67° C | 62% | 1013.4 hPa | 0 mm | - | - | - |
| 1787910829 | 26.67° C | 62% | 1013.6 hPa | 0 mm | - | - | - |
| 1787910525 | 26.67° C | 62% | 1013.3 hPa | 0 mm | - | - | - |
| 1787910220 | 27.22° C | 62% | 1013.5 hPa | 0 mm | - | - | - |
* Rain latest hour (hover to see other rain measurements)
** Current wind speed in m/s (hover to see current wind gust speed)